Location: Altamira
(10.5079°N, 66.8544°W)
Time: 20:37:51
(UTC+00:00)

ASTEX 1 - Pass Details

Date: 08 December 2021
Orbit: 719 x 744 km, 92.7° (Epoch: 17 January)

Event Time Altitude Azimuth Distance (km) Brightness Sun altitude
Rises 23:27:02 0° 161° (SSE) 3,140 6.7 -19.5°
Reaches altitude 10° 23:29:23 10° 155° (SSE) 2,223 5.8 -20.0°
Enters shadow 23:33:52 45° 90° (E) 992 3.6 -21.0°
